Regional Weather Roundup
Issued by NWS

Home | Current Version | Previous Version | Text Only | Print | Product List | Glossary Off
Versions: 1 2 3 4 5 6 7 8 9 10 11 12 13 14 15 16 17 18 19 20 21 22 23 24 25 26 27 28 29 30 31 32 33 34 35 36 37 38 39 40 41 42 43 44 45 46 47 48 49 50

000
ASUS45 KSLC 022310
RWRUT

UTAH REGIONAL WEATHER ROUNDUP
NATIONAL WEATHER SERVICE SALT LAKE CITY UT
400 PM MST FRI DEC 02 2016

UTZ001>011-023>025-030000-

NORTHERN UTAH

CITY           SKY/WX    TMP DP  RH WIND       PRES   REMARKS
BRIGHAM CITY     N/A     36  17  47 SE5       30.25S WCI  32
HILL AFB       CLEAR     33  18  55 NW6       30.22S WCI  27
LOGAN          CLEAR     34  19  54 N7        30.25S WCI  28
OGDEN          CLEAR     34  19  54 NW6       30.23R WCI  29
SALT LAKE CITY PTCLDY    36  22  56 NW12      30.24R WCI  28
TOOELE VALLEY  MOCLDY    32  27  80 S5        30.27R WCI  27
WENDOVER       CLEAR     37  14  38 N9        30.26S WCI  31
HEBER CITY     CLEAR     30  18  59 CALM      30.16S
WEST JORDAN    PTCLDY    32  27  81 NW12G25   30.24R WCI  23

$$

UTZ011>015-024>027-030000-

CENTRAL/NORTHEAST UTAH

CITY           SKY/WX    TMP DP  RH WIND       PRES   REMARKS
PROVO AIRPORT  CLEAR     35  22  58 NW9       30.22R WCI  28
MOAB/CANYONLAN CLOUDY    41  16  36 E10       30.07R
DELTA          CLOUDY    34  19  55 N13       30.21R WCI  25
PRICE          MOCLDY    33  11  39 NE9       30.09R WCI  25
ROOSEVELT      CLEAR     36  12  38 CALM      30.18R
VERNAL         CLEAR     34  12  40 E9        30.15R WCI  27

$$

UTZ013>016-019>022-027-030000-

SOUTHERN UTAH

CITY           SKY/WX    TMP DP  RH WIND       PRES   REMARKS
BRYCE CANYON   NOT AVBL
CEDAR CITY     PTSUNNY   31  15  52 N15G24    30.12R WCI  20
MILFORD        CLOUDY    31  21  66 N13       30.18R WCI  21
ST GEORGE      MOCLDY    46  18  31 NE18      30.12R
HANKSVILLE     CLEAR     43  12  28 N7        30.12R
BLANDING       CLOUDY    37  20  50 NW9       30.08R WCI  30

$$

REGIONAL REPORTS     COLORADO/ARIZONA

CITY           SKY/WX    TMP DP  RH WIND       PRES   REMARKS
CRAIG, CO      CLOUDY    24  16  71 W6        30.14R WCI  17
GRAND JUNCTION CLOUDY    38  22  52 W3        30.09R
RIFLE, CO      CLOUDY    33  19  56 NW13      30.09R WCI  24
MONTROSE, CO   CLOUDY    33  19  56 NW6       30.09R WCI  28
CORTEZ, CO     CLOUDY    36  24  62 SW6       30.00R WCI  31
COLORADO CITY  MOCLDY    41  21  45 NW14      30.07R
PAGE, AZ       SUNNY     46  13  26 NE8       30.03R
GRAND CANYON   PTSUNNY   34  18  52 NE8       30.00R WCI  27
KINGMAN, AZ    SUNNY     49  13  23 N28G35    30.00R
FLAGSTAFF, AZ  CLOUDY    30  21  69 E9        29.96R WCI  22

$$

REGIONAL REPORTS    NEVADA/IDAHO/WYOMING

CITY           SKY/WX    TMP DP  RH WIND       PRES   REMARKS
LAS VEGAS, NV  MOSUNNY   54  12  18 N13G24    30.09R
ELY, NY        SUNNY     29  12  49 N18       30.19R WCI  16
ELKO, NV       MOSUNNY   32  16  51 SW7       30.27S WCI  26
POCATELLO, ID  CLOUDY    27  21  78 SW12      30.30S WCI  17
BURLEY, ID     MOCLDY    33  21  61 W8        30.29R WCI  26
FORT BRIDGER,    N/A     25  10  54 NW6       30.18R WCI  18
EVANSTON, WY   CLEAR     23  10  57 N7        30.15R WCI  15
ROCK SPRINGS,  CLOUDY    23  13  65 NW5       30.14R WCI  17

$$



USA.gov is the U.S. government's official web portal to all federal, state and local government web resources and services.